Time,TemperatureF,DewpointF,PressureIn,WindDirection,WindDirectionDegrees,WindSpeedMPH,WindSpeedGustMPH,Humidity,HourlyPrecipIn,Conditions,Clouds,dailyrainin,SoftwareType,DateUTC
2013-02-21 00:00:00,21.0,15.2,24.31,NNE,24,4.0,8.0,78,0.00,,SKC,0.00,VWS V14.01,2013-02-21 05:00:00,
2013-02-21 00:05:00,21.0,15.2,24.25,NNE,13,5.0,10.0,78,0.00,,SKC,0.00,VWS V14.01,2013-02-21 05:05:00,
2013-02-21 00:10:00,21.0,15.5,24.25,North,355,7.0,9.0,79,0.00,,SKC,0.00,VWS V14.01,2013-02-21 05:10:00,
2013-02-21 00:15:00,21.0,15.2,24.31,North,5,7.0,8.0,78,0.00,,SKC,0.00,VWS V14.01,2013-02-21 05:15:00,
2013-02-21 00:20:00,21.0,15.5,24.29,North,355,3.0,5.0,79,0.00,,SKC,0.00,VWS V14.01,2013-02-21 05:20:00,
2013-02-21 00:25:00,21.1,15.6,24.30,North,360,7.0,9.0,79,0.00,,SKC,0.00,VWS V14.01,2013-02-21 05:25:00,
2013-02-21 00:30:00,21.1,15.6,24.31,North,360,2.0,5.0,79,0.00,,SKC,0.00,VWS V14.01,2013-02-21 05:30:00,
2013-02-21 00:35:00,21.1,15.6,24.32,North,351,2.0,6.0,79,0.00,,SKC,0.00,VWS V14.01,2013-02-21 05:35:00,
2013-02-21 00:40:00,21.1,15.6,24.24,North,360,0.0,4.0,79,0.00,,SKC,0.00,VWS V14.01,2013-02-21 05:40:00,
2013-02-21 00:45:00,21.1,15.6,24.30,NNE,14,8.0,8.0,79,0.00,,SKC,0.00,VWS V14.01,2013-02-21 05:45:00,
2013-02-21 00:50:00,21.1,15.6,24.31,North,355,0.0,6.0,79,0.00,,SKC,0.00,VWS V14.01,2013-02-21 05:50:00,
2013-02-21 00:55:00,21.2,15.7,24.30,North,360,4.0,6.0,79,0.00,,SKC,0.00,VWS V14.01,2013-02-21 05:55:00,
2013-02-21 01:00:00,21.2,15.7,24.26,North,360,0.0,7.0,79,0.00,,SKC,0.00,VWS V14.01,2013-02-21 06:00:00,
2013-02-21 01:05:00,21.3,15.8,24.29,NNW,330,0.0,5.0,79,0.00,,SKC,0.00,VWS V14.01,2013-02-21 06:05:00,
2013-02-21 01:10:00,21.3,15.8,24.30,NNW,344,9.0,9.0,79,0.00,,SKC,0.00,VWS V14.01,2013-02-21 06:10:00,
2013-02-21 01:15:00,21.3,15.8,24.30,NNW,331,4.0,7.0,79,0.00,,SKC,0.00,VWS V14.01,2013-02-21 06:15:00,
2013-02-21 01:20:00,21.3,15.8,24.30,North,360,0.0,7.0,79,0.00,,SKC,0.00,VWS V14.01,2013-02-21 06:20:00,
2013-02-21 01:25:00,21.3,15.8,24.31,NNE,32,1.0,4.0,79,0.00,,SKC,0.00,VWS V14.01,2013-02-21 06:25:00,
2013-02-21 01:30:00,21.3,15.8,24.30,North,360,5.0,5.0,79,0.00,,SKC,0.00,VWS V14.01,2013-02-21 06:30:00,
2013-02-21 01:35:00,21.3,15.8,24.30,NNW,345,4.0,9.0,79,0.00,,SKC,0.00,VWS V14.01,2013-02-21 06:35:00,
2013-02-21 01:40:00,21.3,16.1,24.25,North,355,0.0,4.0,80,0.00,,SKC,0.00,VWS V14.01,2013-02-21 06:40:00,
2013-02-21 01:45:00,21.4,16.2,24.30,North,355,0.0,3.0,80,0.00,,SKC,0.00,VWS V14.01,2013-02-21 06:45:00,
2013-02-21 01:50:00,21.5,16.3,24.31,North,355,3.0,7.0,80,0.00,,SKC,0.00,VWS V14.01,2013-02-21 06:50:00,
2013-02-21 01:55:00,21.4,15.9,24.31,NNW,343,0.0,4.0,79,0.00,,SKC,0.00,VWS V14.01,2013-02-21 06:55:00,
2013-02-21 02:00:00,21.4,16.2,24.30,NNW,342,2.0,6.0,80,0.00,,SKC,0.00,VWS V14.01,2013-02-21 07:00:00,
2013-02-21 02:05:00,21.4,16.2,24.24,NNW,342,0.0,0.0,80,0.00,,SKC,0.00,VWS V14.01,2013-02-21 07:05:00,
2013-02-21 02:10:00,21.5,16.3,24.24,NNW,344,0.0,6.0,80,0.00,,SKC,0.00,VWS V14.01,2013-02-21 07:10:00,
2013-02-21 02:15:00,21.6,16.4,24.31,North,360,0.0,3.0,80,0.00,,SKC,0.00,VWS V14.01,2013-02-21 07:15:00,
2013-02-21 02:20:00,21.6,16.4,24.26,North,5,0.0,0.0,80,0.00,,SKC,0.00,VWS V14.01,2013-02-21 07:20:00,
2013-02-21 02:25:00,21.6,16.4,24.31,NW,314,0.0,6.0,80,0.00,,SKC,0.00,VWS V14.01,2013-02-21 07:25:00,
2013-02-21 02:30:00,21.6,16.1,24.30,North,355,3.0,5.0,79,0.00,,SKC,0.00,VWS V14.01,2013-02-21 07:30:00,
2013-02-21 02:35:00,21.6,16.4,24.26,North,360,6.0,6.0,80,0.00,,SKC,0.00,VWS V14.01,2013-02-21 07:35:00,
2013-02-21 02:40:00,21.6,16.1,24.25,NNW,327,4.0,6.0,79,0.00,,SKC,0.00,VWS V14.01,2013-02-21 07:40:00,
2013-02-21 02:45:00,21.6,16.4,24.30,NNW,333,0.0,0.0,80,0.00,,SKC,0.00,VWS V14.01,2013-02-21 07:45:00,
2013-02-21 02:50:00,21.6,16.4,24.28,NNW,334,0.0,3.0,80,0.00,,SKC,0.00,VWS V14.01,2013-02-21 07:50:00,
2013-02-21 02:55:00,21.7,16.5,24.31,NW,318,3.0,3.0,80,0.00,,SKC,0.00,VWS V14.01,2013-02-21 07:55:00,
2013-02-21 03:00:00,21.7,16.5,24.29,NNW,340,0.0,4.0,80,0.00,,SKC,0.00,VWS V14.01,2013-02-21 08:00:00,
2013-02-21 03:05:00,21.8,16.6,24.30,NNW,336,4.0,5.0,80,0.00,,SKC,0.00,VWS V14.01,2013-02-21 08:05:00,
2013-02-21 03:10:00,21.8,16.6,24.31,NW,323,0.0,0.0,80,0.00,,SKC,0.00,VWS V14.01,2013-02-21 08:10:00,
2013-02-21 03:15:00,21.8,16.6,24.30,NNW,342,4.0,4.0,80,0.00,,SKC,0.00,VWS V14.01,2013-02-21 08:15:00,
2013-02-21 03:20:00,21.8,16.6,24.30,NNW,330,0.0,5.0,80,0.00,,SKC,0.00,VWS V14.01,2013-02-21 08:20:00,
2013-02-21 03:25:00,21.8,16.6,24.25,North,355,0.0,4.0,80,0.00,,SKC,0.00,VWS V14.01,2013-02-21 08:25:00,
2013-02-21 03:30:00,21.8,16.3,24.26,NNW,331,7.0,7.0,79,0.00,,SKC,0.00,VWS V14.01,2013-02-21 08:30:00,
2013-02-21 03:35:00,21.7,16.2,24.30,NNW,340,4.0,5.0,79,0.00,,SKC,0.00,VWS V14.01,2013-02-21 08:35:00,
2013-02-21 03:40:00,21.7,16.2,24.24,NE,45,0.0,5.0,79,0.00,,SKC,0.00,VWS V14.01,2013-02-21 08:40:00,
2013-02-21 03:45:00,21.7,16.5,24.19,NNE,26,2.0,3.0,80,0.00,,SKC,0.00,VWS V14.01,2013-02-21 08:45:00,
2013-02-21 03:49:00,21.7,16.5,24.24,North,11,0.0,3.0,80,0.00,,SKC,0.00,VWS V14.01,2013-02-21 08:49:00,
2013-02-21 03:54:00,21.7,16.5,24.18,North,5,1.0,6.0,80,0.00,,SKC,0.00,VWS V14.01,2013-02-21 08:54:00,
2013-02-21 03:59:00,21.8,16.6,24.30,North,360,5.0,5.0,80,0.00,,SKC,0.00,VWS V14.01,2013-02-21 08:59:00,
2013-02-21 04:04:00,21.8,16.6,24.31,NE,45,5.0,9.0,80,0.00,,SKC,0.00,VWS V14.01,2013-02-21 09:04:00,
2013-02-21 04:09:00,21.8,16.6,24.31,NNW,348,6.0,11.0,80,0.00,,SKC,0.00,VWS V14.01,2013-02-21 09:09:00,
2013-02-21 04:14:00,21.8,16.6,24.30,North,360,3.0,3.0,80,0.00,,SKC,0.00,VWS V14.01,2013-02-21 09:14:00,
2013-02-21 04:19:00,21.7,16.5,24.30,NNW,338,5.0,7.0,80,0.00,,SKC,0.00,VWS V14.01,2013-02-21 09:19:00,
2013-02-21 04:24:00,21.7,16.5,24.30,North,5,4.0,6.0,80,0.00,,SKC,0.00,VWS V14.01,2013-02-21 09:24:00,
2013-02-21 04:29:00,21.8,16.6,24.30,NNE,30,1.0,4.0,80,0.00,,SKC,0.00,VWS V14.01,2013-02-21 09:29:00,
2013-02-21 04:34:00,21.8,16.6,24.30,NNE,28,1.0,5.0,80,0.00,,SKC,0.00,VWS V14.01,2013-02-21 09:34:00,
2013-02-21 04:39:00,21.8,16.3,24.29,North,10,3.0,9.0,79,0.00,,SKC,0.00,VWS V14.01,2013-02-21 09:39:00,
2013-02-21 04:44:00,21.7,16.2,24.20,NNW,339,3.0,10.0,79,0.00,,SKC,0.00,VWS V14.01,2013-02-21 09:44:00,
2013-02-21 04:49:00,21.6,15.8,24.19,NE,40,2.0,5.0,78,0.00,,SKC,0.00,VWS V14.01,2013-02-21 09:49:00,
2013-02-21 04:54:00,21.5,16.0,24.24,NNE,16,0.0,6.0,79,0.00,,SKC,0.00,VWS V14.01,2013-02-21 09:54:00,
2013-02-21 04:59:00,21.5,16.0,24.10,NE,41,0.0,5.0,79,0.00,,SKC,0.00,VWS V14.01,2013-02-21 09:59:00,
2013-02-21 05:04:00,21.5,16.0,24.30,North,350,3.0,4.0,79,0.00,,SKC,0.00,VWS V14.01,2013-02-21 10:04:00,
2013-02-21 05:09:00,21.5,16.0,24.30,NNW,337,2.0,4.0,79,0.00,,SKC,0.00,VWS V14.01,2013-02-21 10:09:00,
2013-02-21 05:14:00,21.4,15.9,24.25,NNW,331,2.0,4.0,79,0.00,,SKC,0.00,VWS V14.01,2013-02-21 10:14:00,
2013-02-21 05:19:00,21.4,15.9,24.25,NNE,26,1.0,6.0,79,0.00,,SKC,0.00,VWS V14.01,2013-02-21 10:19:00,
2013-02-21 05:24:00,21.4,15.9,24.32,NNW,342,4.0,11.0,79,0.00,,SKC,0.00,VWS V14.01,2013-02-21 10:24:00,
2013-02-21 05:29:00,21.3,15.8,24.25,North,355,4.0,7.0,79,0.00,,SKC,0.00,VWS V14.01,2013-02-21 10:29:00,
2013-02-21 05:34:00,21.3,15.8,24.30,NNW,329,5.0,10.0,79,0.00,,SKC,0.00,VWS V14.01,2013-02-21 10:34:00,
2013-02-21 05:39:00,21.4,16.2,24.29,NNE,26,6.0,6.0,80,0.00,,SKC,0.00,VWS V14.01,2013-02-21 10:39:00,
2013-02-21 05:44:00,21.4,16.2,24.30,North,360,3.0,4.0,80,0.00,,SKC,0.00,VWS V14.01,2013-02-21 10:44:00,
2013-02-21 05:49:00,21.4,16.2,24.24,NNE,14,2.0,10.0,80,0.00,,SKC,0.00,VWS V14.01,2013-02-21 10:49:00,
2013-02-21 05:54:00,21.5,16.3,24.25,NNE,19,0.0,4.0,80,0.00,,SKC,0.00,VWS V14.01,2013-02-21 10:54:00,
2013-02-21 05:59:00,21.5,16.3,24.25,NNE,26,3.0,4.0,80,0.00,,SKC,0.00,VWS V14.01,2013-02-21 10:59:00,
2013-02-21 06:04:00,21.6,16.4,24.27,NNE,16,0.0,5.0,80,0.00,,SKC,0.00,VWS V14.01,2013-02-21 11:04:00,
2013-02-21 06:09:00,21.6,16.4,24.25,NNE,32,3.0,6.0,80,0.00,,SKC,0.00,VWS V14.01,2013-02-21 11:09:00,
2013-02-21 06:14:00,21.5,16.3,24.29,NNE,21,1.0,5.0,80,0.00,,SKC,0.00,VWS V14.01,2013-02-21 11:14:00,
2013-02-21 06:19:00,21.6,16.4,24.31,North,360,4.0,5.0,80,0.00,,SKC,0.00,VWS V14.01,2013-02-21 11:19:00,
2013-02-21 06:24:00,21.6,16.4,24.25,North,11,0.0,2.0,80,0.00,,SKC,0.00,VWS V14.01,2013-02-21 11:24:00,
2013-02-21 06:29:00,21.7,16.5,24.31,NNW,348,3.0,8.0,80,0.00,,SKC,0.00,VWS V14.01,2013-02-21 11:29:00,
2013-02-21 06:34:00,21.6,16.1,24.25,NNE,28,3.0,4.0,79,0.00,,SKC,0.00,VWS V14.01,2013-02-21 11:34:00,
2013-02-21 06:39:00,21.6,16.1,24.32,NNE,17,6.0,6.0,79,0.00,,SKC,0.00,VWS V14.01,2013-02-21 11:39:00,
2013-02-21 06:44:00,21.5,15.7,24.30,North,355,0.0,4.0,78,0.00,,SKC,0.00,VWS V14.01,2013-02-21 11:44:00,
2013-02-21 06:49:00,21.5,16.0,24.31,NE,49,5.0,6.0,79,0.00,,SKC,0.00,VWS V14.01,2013-02-21 11:49:00,
2013-02-21 06:54:00,21.4,15.9,24.30,NE,53,3.0,4.0,79,0.00,,SKC,0.00,VWS V14.01,2013-02-21 11:54:00,
2013-02-21 06:59:00,21.5,16.0,24.22,ENE,59,0.0,0.0,79,0.00,,SKC,0.00,VWS V14.01,2013-02-21 11:59:00,
2013-02-21 07:04:00,21.6,16.1,24.30,North,5,2.0,5.0,79,0.00,,SKC,0.00,VWS V14.01,2013-02-21 12:04:00,
2013-02-21 07:09:00,21.6,16.1,24.26,North,355,5.0,5.0,79,0.00,,SKC,0.00,VWS V14.01,2013-02-21 12:09:00,
2013-02-21 07:14:00,21.7,16.2,24.26,North,360,0.0,0.0,79,0.00,,SKC,0.00,VWS V14.01,2013-02-21 12:14:00,
2013-02-21 07:19:00,21.7,16.2,24.20,North,355,0.0,0.0,79,0.00,,SKC,0.00,VWS V14.01,2013-02-21 12:19:00,
2013-02-21 07:24:00,21.8,16.3,24.30,North,351,0.0,3.0,79,0.00,,SKC,0.00,VWS V14.01,2013-02-21 12:24:00,
2013-02-21 07:29:00,21.8,16.3,24.31,North,5,0.0,4.0,79,0.00,,SKC,0.00,VWS V14.01,2013-02-21 12:29:00,
2013-02-21 07:34:00,21.8,16.3,24.31,North,360,0.0,0.0,79,0.00,,SKC,0.00,VWS V14.01,2013-02-21 12:34:00,
2013-02-21 07:39:00,21.9,16.4,24.27,North,5,0.0,2.0,79,0.00,,SKC,0.00,VWS V14.01,2013-02-21 12:39:00,
2013-02-21 07:44:00,21.9,16.4,24.28,ENE,65,2.0,3.0,79,0.00,,SKC,0.00,VWS V14.01,2013-02-21 12:44:00,
2013-02-21 07:49:00,21.9,16.4,24.28,NNE,20,0.0,1.0,79,0.00,,SKC,0.00,VWS V14.01,2013-02-21 12:49:00,
2013-02-21 07:54:00,21.9,16.4,24.28,NNW,330,0.0,2.0,79,0.00,,SKC,0.00,VWS V14.01,2013-02-21 12:54:00,
2013-02-21 07:59:00,21.9,16.1,24.28,NNW,348,1.0,2.0,78,0.00,,SKC,0.00,VWS V14.01,2013-02-21 12:59:00,
2013-02-21 08:04:00,21.8,16.0,24.28,North,355,3.0,4.0,78,0.00,,SKC,0.00,VWS V14.01,2013-02-21 13:04:00,
2013-02-21 08:09:00,21.8,16.0,24.28,North,355,0.0,0.0,78,0.00,,SKC,0.00,VWS V14.01,2013-02-21 13:09:00,
2013-02-21 08:14:00,21.8,16.0,24.26,North,5,3.0,6.0,78,0.00,,SKC,0.00,VWS V14.01,2013-02-21 13:14:00,
2013-02-21 08:19:00,21.9,16.4,24.26,North,9,0.0,0.0,79,0.00,,SKC,0.00,VWS V14.01,2013-02-21 13:19:00,
2013-02-21 08:24:00,22.0,16.2,24.26,North,350,0.0,4.0,78,0.00,,SKC,0.00,VWS V14.01,2013-02-21 13:24:00,
2013-02-21 08:29:00,22.0,16.2,24.32,NNE,20,4.0,4.0,78,0.00,,SKC,0.00,VWS V14.01,2013-02-21 13:29:00,
2013-02-21 08:34:00,22.1,16.3,24.25,North,355,4.0,5.0,78,0.00,,SKC,0.00,VWS V14.01,2013-02-21 13:34:00,
2013-02-21 08:39:00,22.2,16.4,24.25,NNW,346,0.0,3.0,78,0.00,,SKC,0.00,VWS V14.01,2013-02-21 13:39:00,
2013-02-21 08:44:00,22.2,16.4,24.39,ENE,57,4.0,4.0,78,0.00,,SKC,0.00,VWS V14.01,2013-02-21 13:44:00,
2013-02-21 08:49:00,22.3,16.5,24.39,North,360,3.0,3.0,78,0.00,,SKC,0.00,VWS V14.01,2013-02-21 13:49:00,
2013-02-21 08:54:00,22.3,16.5,24.42,North,9,0.0,0.0,78,0.00,,SKC,0.00,VWS V14.01,2013-02-21 13:54:00,
2013-02-21 08:59:00,22.4,16.6,24.42,North,5,0.0,4.0,78,0.00,,SKC,0.00,VWS V14.01,2013-02-21 13:59:00,
2013-02-21 09:04:00,22.5,16.7,24.42,ENE,73,0.0,3.0,78,0.00,,SKC,0.00,VWS V14.01,2013-02-21 14:04:00,
2013-02-21 09:09:00,22.5,17.0,24.42,ESE,107,0.0,1.0,79,0.00,,SKC,0.00,VWS V14.01,2013-02-21 14:09:00,
2013-02-21 09:14:00,22.6,17.1,24.17,ENE,71,0.0,0.0,79,0.00,,SKC,0.00,VWS V14.01,2013-02-21 14:14:00,
2013-02-21 09:19:00,22.7,16.9,24.17,NE,38,3.0,6.0,78,0.00,,SKC,0.00,VWS V14.01,2013-02-21 14:19:00,
2013-02-21 09:24:00,22.7,17.2,24.17,ENE,60,5.0,5.0,79,0.00,,SKC,0.00,VWS V14.01,2013-02-21 14:24:00,
2013-02-21 09:29:00,22.8,17.0,24.17,NE,56,3.0,3.0,78,0.00,,SKC,0.00,VWS V14.01,2013-02-21 14:29:00,
2013-02-21 09:34:00,22.7,16.9,24.15,NNE,28,0.0,0.0,78,0.00,,SKC,0.00,VWS V14.01,2013-02-21 14:34:00,
2013-02-21 09:39:00,22.8,17.0,24.19,NE,46,0.0,6.0,78,0.00,,SKC,0.00,VWS V14.01,2013-02-21 14:39:00,
2013-02-21 09:44:00,22.8,17.0,24.19,North,9,4.0,4.0,78,0.00,,SKC,0.00,VWS V14.01,2013-02-21 14:44:00,
2013-02-21 09:49:00,22.9,17.1,24.37,NNE,18,7.0,10.0,78,0.00,,SKC,0.00,VWS V14.01,2013-02-21 14:49:00,
2013-02-21 09:54:00,22.9,17.1,24.29,NNE,15,6.0,7.0,78,0.00,,SKC,0.00,VWS V14.01,2013-02-21 14:54:00,
2013-02-21 09:59:00,23.0,17.2,24.18,NNE,18,0.0,0.0,78,0.00,,SKC,0.00,VWS V14.01,2013-02-21 14:59:00,
2013-02-21 10:04:00,23.1,17.3,24.18,NE,37,0.0,0.0,78,0.00,,SKC,0.00,VWS V14.01,2013-02-21 15:04:00,
2013-02-21 10:09:00,23.1,17.3,24.30,NE,40,5.0,7.0,78,0.00,,SKC,0.00,VWS V14.01,2013-02-21 15:09:00,
2013-02-21 10:14:00,23.1,17.3,24.28,ENE,66,5.0,6.0,78,0.00,,SKC,0.00,VWS V14.01,2013-02-21 15:14:00,
2013-02-21 10:19:00,23.0,17.2,24.28,ESE,103,0.0,2.0,78,0.00,,SKC,0.00,VWS V14.01,2013-02-21 15:19:00,
2013-02-21 10:24:00,23.1,17.3,24.28,ESE,103,0.0,0.0,78,0.00,,SKC,0.00,VWS V14.01,2013-02-21 15:24:00,
2013-02-21 10:29:00,23.1,17.3,24.28,ESE,107,0.0,0.0,78,0.00,,SKC,0.00,VWS V14.01,2013-02-21 15:29:00,
2013-02-21 10:34:00,23.2,17.7,24.23,ESE,118,2.0,4.0,79,0.00,,SKC,0.00,VWS V14.01,2013-02-21 15:34:00,
2013-02-21 10:39:00,23.3,17.8,24.36,ESE,122,0.0,2.0,79,0.00,,SKC,0.00,VWS V14.01,2013-02-21 15:39:00,
2013-02-21 10:44:00,23.4,17.9,24.36,ESE,118,3.0,3.0,79,0.00,,SKC,0.00,VWS V14.01,2013-02-21 15:44:00,
2013-02-21 10:49:00,23.6,18.1,24.36,East,83,0.0,0.0,79,0.00,,SKC,0.00,VWS V14.01,2013-02-21 15:49:00,
2013-02-21 10:54:00,23.5,17.7,24.28,ESE,110,4.0,4.0,78,0.00,,SKC,0.00,VWS V14.01,2013-02-21 15:54:00,
2013-02-21 10:59:00,23.5,17.7,24.30,ESE,111,0.0,2.0,78,0.00,,SKC,0.00,VWS V14.01,2013-02-21 15:59:00,
2013-02-21 11:04:00,23.5,17.7,24.30,East,101,3.0,3.0,78,0.00,,SKC,0.00,VWS V14.01,2013-02-21 16:04:00,
2013-02-21 11:09:00,23.6,17.8,24.25,ENE,78,0.0,0.0,78,0.00,,SKC,0.00,VWS V14.01,2013-02-21 16:09:00,
2013-02-21 11:14:00,23.6,17.8,24.30,ENE,67,0.0,6.0,78,0.00,,SKC,0.00,VWS V14.01,2013-02-21 16:14:00,
2013-02-21 11:19:00,23.7,17.6,24.30,ENE,61,5.0,5.0,77,0.00,,SKC,0.00,VWS V14.01,2013-02-21 16:19:00,
2013-02-21 11:24:00,23.8,17.4,24.32,ENE,59,2.0,6.0,76,0.00,,SKC,0.00,VWS V14.01,2013-02-21 16:24:00,
2013-02-21 11:29:00,23.9,17.5,24.30,ENE,71,2.0,2.0,76,0.00,,SKC,0.00,VWS V14.01,2013-02-21 16:29:00,
2013-02-21 11:34:00,23.9,17.1,24.30,NNE,13,4.0,4.0,75,0.00,,SKC,0.00,VWS V14.01,2013-02-21 16:34:00,
2013-02-21 11:39:00,23.9,17.1,24.31,NNE,22,4.0,7.0,75,0.00,,SKC,0.00,VWS V14.01,2013-02-21 16:39:00,
2013-02-21 11:44:00,23.9,17.1,24.32,ENE,59,2.0,4.0,75,0.00,,SKC,0.00,VWS V14.01,2013-02-21 16:44:00,
2013-02-21 11:49:00,24.2,17.4,24.30,ENE,65,4.0,10.0,75,0.00,,SKC,0.00,VWS V14.01,2013-02-21 16:49:00,
2013-02-21 11:54:00,24.5,17.7,24.30,NNE,26,5.0,10.0,75,0.00,,SKC,0.00,VWS V14.01,2013-02-21 16:54:00,
2013-02-21 11:59:00,25.1,18.0,24.30,NE,34,4.0,10.0,74,0.00,,SKC,0.00,VWS V14.01,2013-02-21 16:59:00,
2013-02-21 12:04:00,25.5,18.1,24.30,NE,38,4.0,6.0,73,0.00,,SKC,0.00,VWS V14.01,2013-02-21 17:04:00,
2013-02-21 12:09:00,25.6,18.2,24.31,NE,53,4.0,6.0,73,0.00,,SKC,0.00,VWS V14.01,2013-02-21 17:09:00,
2013-02-21 12:14:00,25.4,18.3,24.31,NNE,25,5.0,5.0,74,0.00,,SKC,0.00,VWS V14.01,2013-02-21 17:14:00,
2013-02-21 12:19:00,25.3,17.9,24.30,NE,53,4.0,6.0,73,0.00,,SKC,0.00,VWS V14.01,2013-02-21 17:19:00,
2013-02-21 12:24:00,25.0,17.9,24.27,East,92,2.0,4.0,74,0.00,,SKC,0.00,VWS V14.01,2013-02-21 17:24:00,
2013-02-21 12:29:00,24.9,17.8,24.29,East,101,3.0,4.0,74,0.00,,SKC,0.00,VWS V14.01,2013-02-21 17:29:00,
2013-02-21 12:34:00,24.8,17.7,24.28,East,82,0.0,3.0,74,0.00,,SKC,0.00,VWS V14.01,2013-02-21 17:34:00,
2013-02-21 12:39:00,24.8,17.7,24.29,ESE,113,4.0,9.0,74,0.00,,SKC,0.00,VWS V14.01,2013-02-21 17:39:00,
2013-02-21 12:44:00,24.9,17.8,24.29,East,98,1.0,5.0,74,0.00,,SKC,0.00,VWS V14.01,2013-02-21 17:44:00,
2013-02-21 12:49:00,24.9,17.8,24.29,NE,48,4.0,11.0,74,0.00,,SKC,0.00,VWS V14.01,2013-02-21 17:49:00,
2013-02-21 12:54:00,25.0,18.2,24.29,ENE,77,5.0,7.0,75,0.00,,SKC,0.00,VWS V14.01,2013-02-21 17:54:00,
2013-02-21 12:59:00,25.6,18.8,24.28,ENE,58,4.0,4.0,75,0.00,,SKC,0.00,VWS V14.01,2013-02-21 17:59:00,
2013-02-21 13:04:00,25.7,18.3,24.30,ENE,73,3.0,7.0,73,0.00,,SKC,0.00,VWS V14.01,2013-02-21 18:04:00,
2013-02-21 13:09:00,26.0,18.5,24.23,ENE,59,2.0,7.0,73,0.00,,SKC,0.00,VWS V14.01,2013-02-21 18:09:00,
2013-02-21 13:14:00,26.2,18.4,24.30,ESE,105,4.0,11.0,72,0.00,,SKC,0.00,VWS V14.01,2013-02-21 18:14:00,
2013-02-21 13:19:00,26.4,18.6,24.30,SE,131,9.0,9.0,72,0.00,,SKC,0.00,VWS V14.01,2013-02-21 18:19:00,
2013-02-21 13:24:00,26.2,18.4,24.28,ENE,70,5.0,5.0,72,0.00,,SKC,0.00,VWS V14.01,2013-02-21 18:24:00,
2013-02-21 13:29:00,26.4,18.9,24.31,ESE,122,5.0,10.0,73,0.00,,SKC,0.00,VWS V14.01,2013-02-21 18:29:00,
2013-02-21 13:34:00,26.0,18.2,24.30,ESE,123,4.0,6.0,72,0.00,,SKC,0.00,VWS V14.01,2013-02-21 18:34:00,
2013-02-21 13:39:00,26.0,18.2,24.31,ESE,106,6.0,7.0,72,0.00,,SKC,0.00,VWS V14.01,2013-02-21 18:39:00,
2013-02-21 13:44:00,26.2,18.7,24.27,ESE,102,10.0,11.0,73,0.00,,SKC,0.00,VWS V14.01,2013-02-21 18:44:00,
2013-02-21 13:49:00,26.3,18.8,24.31,ENE,61,6.0,12.0,73,0.00,,SKC,0.00,VWS V14.01,2013-02-21 18:49:00,
2013-02-21 13:54:00,26.4,18.9,24.22,ENE,58,12.0,12.0,73,0.00,,SKC,0.00,VWS V14.01,2013-02-21 18:54:00,
2013-02-21 13:59:00,26.3,18.8,24.27,North,5,0.0,5.0,73,0.00,,SKC,0.00,VWS V14.01,2013-02-21 18:59:00,
2013-02-21 14:04:00,26.6,19.1,24.27,ENE,65,5.0,6.0,73,0.00,,SKC,0.00,VWS V14.01,2013-02-21 19:04:00,
2013-02-21 14:09:00,26.9,19.7,24.32,ENE,74,4.0,6.0,74,0.00,,SKC,0.00,VWS V14.01,2013-02-21 19:09:00,
2013-02-21 14:14:00,27.0,19.5,24.34,ENE,57,6.0,7.0,73,0.00,,SKC,0.00,VWS V14.01,2013-02-21 19:14:00,
2013-02-21 14:19:00,26.9,19.1,24.30,ESE,122,4.0,17.0,72,0.00,,SKC,0.00,VWS V14.01,2013-02-21 19:19:00,
2013-02-21 14:24:00,26.9,19.4,24.31,ENE,59,6.0,9.0,73,0.00,,SKC,0.00,VWS V14.01,2013-02-21 19:24:00,
2013-02-21 14:29:00,26.9,19.4,24.27,East,100,10.0,10.0,73,0.00,,SKC,0.00,VWS V14.01,2013-02-21 19:29:00,
2013-02-21 14:34:00,26.8,19.6,24.33,ENE,69,8.0,13.0,74,0.00,,SKC,0.00,VWS V14.01,2013-02-21 19:34:00,
2013-02-21 14:39:00,26.8,19.6,24.31,ENE,67,13.0,13.0,74,0.00,,SKC,0.00,VWS V14.01,2013-02-21 19:39:00,
2013-02-21 14:44:00,27.0,19.8,24.30,ENE,76,6.0,9.0,74,0.00,,SKC,0.00,VWS V14.01,2013-02-21 19:44:00,
2013-02-21 14:49:00,27.0,19.5,24.30,SE,137,7.0,10.0,73,0.00,,SKC,0.00,VWS V14.01,2013-02-21 19:49:00,
2013-02-21 14:54:00,26.9,19.4,24.30,ENE,57,2.0,13.0,73,0.00,,SKC,0.00,VWS V14.01,2013-02-21 19:54:00,
2013-02-21 14:59:00,26.7,19.5,24.31,ENE,68,3.0,5.0,74,0.00,,SKC,0.00,VWS V14.01,2013-02-21 19:59:00,
2013-02-21 15:04:00,27.0,19.8,24.30,SE,124,11.0,11.0,74,0.00,,SKC,0.00,VWS V14.01,2013-02-21 20:04:00,
2013-02-21 15:09:00,26.9,19.4,24.30,ESE,113,11.0,14.0,73,0.00,,SKC,0.00,VWS V14.01,2013-02-21 20:09:00,
2013-02-21 15:14:00,26.7,19.5,24.30,NE,40,9.0,15.0,74,0.00,,SKC,0.00,VWS V14.01,2013-02-21 20:14:00,
2013-02-21 15:19:00,26.6,19.8,24.30,East,90,11.0,11.0,75,0.00,,SKC,0.00,VWS V14.01,2013-02-21 20:19:00,
2013-02-21 15:24:00,26.6,19.4,24.29,East,101,6.0,13.0,74,0.00,,SKC,0.00,VWS V14.01,2013-02-21 20:24:00,
2013-02-21 15:29:00,26.4,19.6,24.30,SE,126,3.0,6.0,75,0.00,,SKC,0.00,VWS V14.01,2013-02-21 20:29:00,
2013-02-21 15:34:00,26.4,19.9,24.30,ESE,122,4.0,11.0,76,0.00,,SKC,0.00,VWS V14.01,2013-02-21 20:34:00,
2013-02-21 15:39:00,26.2,19.7,24.29,NE,50,9.0,10.0,76,0.00,,SKC,0.00,VWS V14.01,2013-02-21 20:39:00,
2013-02-21 15:44:00,26.1,19.3,24.29,NNE,30,5.0,11.0,75,0.00,,SKC,0.00,VWS V14.01,2013-02-21 20:44:00,
2013-02-21 15:49:00,26.2,19.7,24.31,ESE,122,5.0,12.0,76,0.00,,SKC,0.00,VWS V14.01,2013-02-21 20:49:00,
2013-02-21 15:54:00,26.3,19.8,24.28,East,96,4.0,6.0,76,0.00,,SKC,0.00,VWS V14.01,2013-02-21 20:54:00,
2013-02-21 15:59:00,26.2,19.7,24.30,SE,141,13.0,13.0,76,0.00,,SKC,0.00,VWS V14.01,2013-02-21 20:59:00,
2013-02-21 16:04:00,26.0,19.8,24.33,East,80,2.0,7.0,77,0.00,,SKC,0.00,VWS V14.01,2013-02-21 21:04:00,
2013-02-21 16:09:00,26.1,19.9,24.30,SE,125,3.0,10.0,77,0.00,,SKC,0.00,VWS V14.01,2013-02-21 21:09:00,
2013-02-21 16:14:00,26.2,20.0,24.29,ESE,120,3.0,7.0,77,0.00,,SKC,0.00,VWS V14.01,2013-02-21 21:14:00,
2013-02-21 16:19:00,26.1,19.9,24.29,SSE,150,5.0,10.0,77,0.00,,SKC,0.00,VWS V14.01,2013-02-21 21:19:00,
2013-02-21 16:24:00,26.1,19.6,24.30,ESE,103,3.0,8.0,76,0.00,,SKC,0.00,VWS V14.01,2013-02-21 21:24:00,
2013-02-21 16:29:00,26.2,20.0,24.29,ESE,121,2.0,9.0,77,0.00,,SKC,0.00,VWS V14.01,2013-02-21 21:29:00,
2013-02-21 16:34:00,26.3,20.1,24.30,SE,132,3.0,9.0,77,0.00,,SKC,0.00,VWS V14.01,2013-02-21 21:34:00,
2013-02-21 16:39:00,26.2,20.0,24.29,ESE,118,4.0,9.0,77,0.00,,SKC,0.00,VWS V14.01,2013-02-21 21:39:00,
2013-02-21 16:44:00,26.3,20.1,24.29,ESE,114,0.0,0.0,77,0.00,,SKC,0.00,VWS V14.01,2013-02-21 21:44:00,
2013-02-21 16:49:00,26.3,20.1,24.29,NNE,15,1.0,2.0,77,0.00,,SKC,0.00,VWS V14.01,2013-02-21 21:49:00,
2013-02-21 16:54:00,26.3,19.8,24.30,ESE,114,2.0,7.0,76,0.00,,SKC,0.00,VWS V14.01,2013-02-21 21:54:00,
2013-02-21 16:59:00,26.3,19.8,24.26,SE,144,1.0,5.0,76,0.00,,SKC,0.00,VWS V14.01,2013-02-21 21:59:00,
2013-02-21 17:04:00,26.3,20.1,24.27,ENE,69,3.0,6.0,77,0.00,,SKC,0.00,VWS V14.01,2013-02-21 22:04:00,
2013-02-21 17:09:00,26.2,20.0,24.30,NNE,25,0.0,6.0,77,0.00,,SKC,0.00,VWS V14.01,2013-02-21 22:09:00,
2013-02-21 17:14:00,26.2,20.0,24.28,SE,141,5.0,8.0,77,0.00,,SKC,0.00,VWS V14.01,2013-02-21 22:14:00,
2013-02-21 17:19:00,26.2,20.0,24.20,SE,126,0.0,7.0,77,0.00,,SKC,0.00,VWS V14.01,2013-02-21 22:19:00,
2013-02-21 17:24:00,26.2,20.3,24.28,SE,134,6.0,11.0,78,0.00,,SKC,0.00,VWS V14.01,2013-02-21 22:24:00,
2013-02-21 17:29:00,26.1,20.2,24.29,East,80,1.0,7.0,78,0.00,,SKC,0.00,VWS V14.01,2013-02-21 22:29:00,
2013-02-21 17:34:00,26.1,20.2,24.32,NNE,15,3.0,6.0,78,0.00,,SKC,0.00,VWS V14.01,2013-02-21 22:34:00,
2013-02-21 17:39:00,26.0,19.8,24.32,SSE,153,3.0,7.0,77,0.00,,SKC,0.00,VWS V14.01,2013-02-21 22:39:00,
2013-02-21 17:44:00,26.0,19.8,24.25,ESE,123,0.0,11.0,77,0.00,,SKC,0.00,VWS V14.01,2013-02-21 22:44:00,
2013-02-21 17:49:00,25.9,19.7,24.25,NE,39,0.0,7.0,77,0.00,,SKC,0.00,VWS V14.01,2013-02-21 22:49:00,
2013-02-21 17:54:00,25.8,19.6,24.26,East,90,3.0,7.0,77,0.00,,SKC,0.00,VWS V14.01,2013-02-21 22:54:00,
2013-02-21 17:59:00,25.9,20.0,24.23,ENE,69,1.0,7.0,78,0.00,,SKC,0.00,VWS V14.01,2013-02-21 22:59:00,
2013-02-21 18:04:00,25.9,20.0,24.28,ESE,111,1.0,3.0,78,0.00,,SKC,0.00,VWS V14.01,2013-02-21 23:04:00,
2013-02-21 18:09:00,25.9,20.0,24.27,SE,128,5.0,7.0,78,0.00,,SKC,0.00,VWS V14.01,2013-02-21 23:09:00,
2013-02-21 18:14:00,25.8,19.9,24.27,SE,128,4.0,13.0,78,0.00,,SKC,0.00,VWS V14.01,2013-02-21 23:14:00,
2013-02-21 18:19:00,25.7,19.8,24.29,ENE,75,1.0,8.0,78,0.00,,SKC,0.00,VWS V14.01,2013-02-21 23:19:00,
2013-02-21 18:24:00,25.7,19.8,24.29,East,94,4.0,8.0,78,0.00,,SKC,0.00,VWS V14.01,2013-02-21 23:24:00,
2013-02-21 18:29:00,25.7,20.1,24.29,ESE,107,5.0,5.0,79,0.00,,SKC,0.00,VWS V14.01,2013-02-21 23:29:00,
2013-02-21 18:34:00,25.7,20.1,24.29,SE,131,7.0,12.0,79,0.00,,SKC,0.00,VWS V14.01,2013-02-21 23:34:00,
2013-02-21 18:39:00,25.7,20.1,24.29,North,9,0.0,7.0,79,0.00,,SKC,0.00,VWS V14.01,2013-02-21 23:39:00,
2013-02-21 18:44:00,25.8,20.2,24.29,ENE,70,0.0,10.0,79,0.00,,SKC,0.00,VWS V14.01,2013-02-21 23:44:00,
2013-02-21 18:49:00,25.8,19.9,24.31,SE,142,8.0,10.0,78,0.00,,SKC,0.00,VWS V14.01,2013-02-21 23:49:00,
2013-02-21 18:54:00,25.7,19.8,24.32,ESE,114,7.0,9.0,78,0.00,,SKC,0.00,VWS V14.01,2013-02-21 23:54:00,
2013-02-21 18:59:00,25.7,19.8,24.30,SE,142,11.0,11.0,78,0.00,,SKC,0.00,VWS V14.01,2013-02-21 23:59:00,
2013-02-21 19:04:00,25.7,20.1,24.33,ESE,106,0.0,4.0,79,0.00,,SKC,0.00,VWS V14.01,2013-02-22 00:04:00,
2013-02-21 19:09:00,25.8,20.2,24.29,ESE,117,8.0,11.0,79,0.00,,SKC,0.00,VWS V14.01,2013-02-22 00:09:00,
2013-02-21 19:14:00,25.8,20.2,24.27,East,101,3.0,9.0,79,0.00,,SKC,0.00,VWS V14.01,2013-02-22 00:14:00,
2013-02-21 19:19:00,25.9,20.3,24.28,South,188,9.0,18.0,79,0.00,,SKC,0.00,VWS V14.01,2013-02-22 00:19:00,
2013-02-21 19:24:00,25.9,20.0,24.28,ESE,111,3.0,5.0,78,0.00,,SKC,0.00,VWS V14.01,2013-02-22 00:24:00,
2013-02-21 19:29:00,26.0,20.4,24.27,SE,140,6.0,7.0,79,0.00,,SKC,0.00,VWS V14.01,2013-02-22 00:29:00,
2013-02-21 19:34:00,26.0,20.1,24.28,SE,144,5.0,7.0,78,0.00,,SKC,0.00,VWS V14.01,2013-02-22 00:34:00,
2013-02-21 19:39:00,26.0,20.4,24.28,SE,137,2.0,9.0,79,0.00,,SKC,0.00,VWS V14.01,2013-02-22 00:39:00,
2013-02-21 19:44:00,26.0,20.4,24.26,SE,125,8.0,11.0,79,0.00,,SKC,0.00,VWS V14.01,2013-02-22 00:44:00,
2013-02-21 19:49:00,25.9,20.3,24.27,ESE,121,2.0,10.0,79,0.00,,SKC,0.00,VWS V14.01,2013-02-22 00:49:00,
2013-02-21 19:54:00,25.9,20.3,24.29,ESE,121,5.0,6.0,79,0.00,,SKC,0.00,VWS V14.01,2013-02-22 00:54:00,
2013-02-21 19:59:00,26.0,20.4,24.29,SE,124,4.0,9.0,79,0.00,,SKC,0.00,VWS V14.01,2013-02-22 00:59:00,
2013-02-21 20:04:00,26.0,20.7,24.28,ESE,115,7.0,7.0,80,0.00,,SKC,0.00,VWS V14.01,2013-02-22 01:04:00,
2013-02-21 20:09:00,26.0,20.4,24.29,SE,136,7.0,11.0,79,0.00,,SKC,0.00,VWS V14.01,2013-02-22 01:09:00,
2013-02-21 20:14:00,26.0,20.4,24.30,ESE,113,5.0,6.0,79,0.00,,SKC,0.00,VWS V14.01,2013-02-22 01:14:00,
2013-02-21 20:19:00,26.0,20.4,24.29,SE,128,11.0,15.0,79,0.00,,SKC,0.00,VWS V14.01,2013-02-22 01:19:00,
2013-02-21 20:24:00,25.9,20.3,24.29,SE,146,4.0,10.0,79,0.00,,SKC,0.00,VWS V14.01,2013-02-22 01:24:00,
2013-02-21 20:29:00,25.9,20.3,24.31,SE,126,8.0,8.0,79,0.00,,SKC,0.00,VWS V14.01,2013-02-22 01:29:00,
2013-02-21 20:34:00,25.9,20.3,24.29,SSE,157,10.0,13.0,79,0.00,,SKC,0.00,VWS V14.01,2013-02-22 01:34:00,
2013-02-21 20:39:00,26.0,20.1,24.29,SE,134,12.0,17.0,78,0.00,,SKC,0.00,VWS V14.01,2013-02-22 01:39:00,
2013-02-21 20:44:00,25.9,20.0,24.28,SE,146,9.0,11.0,78,0.00,,SKC,0.00,VWS V14.01,2013-02-22 01:44:00,
2013-02-21 20:49:00,25.9,20.0,24.30,SE,125,6.0,11.0,78,0.00,,SKC,0.00,VWS V14.01,2013-02-22 01:49:00,
2013-02-21 20:54:00,25.9,20.0,24.23,SE,129,3.0,12.0,78,0.00,,SKC,0.00,VWS V14.01,2013-02-22 01:54:00,
2013-02-21 20:59:00,25.8,19.9,24.30,ESE,121,4.0,13.0,78,0.00,,SKC,0.00,VWS V14.01,2013-02-22 01:59:00,
2013-02-21 21:03:00,25.9,20.0,24.29,NE,37,14.0,14.0,78,0.00,,SKC,0.00,VWS V14.01,2013-02-22 02:03:00,
2013-02-21 21:08:00,25.8,20.2,24.30,ESE,117,3.0,12.0,79,0.00,,SKC,0.00,VWS V14.01,2013-02-22 02:08:00,
2013-02-21 21:13:00,25.8,20.5,24.30,East,98,19.0,19.0,80,0.00,,SKC,0.00,VWS V14.01,2013-02-22 02:13:00,
2013-02-21 21:18:00,25.8,20.8,24.23,ESE,112,5.0,12.0,81,0.00,,SKC,0.00,VWS V14.01,2013-02-22 02:18:00,
2013-02-21 21:23:00,25.8,21.1,24.29,ESE,113,10.0,12.0,82,0.00,,SKC,0.00,VWS V14.01,2013-02-22 02:23:00,
2013-02-21 21:28:00,25.7,21.0,24.30,SE,142,5.0,15.0,82,0.00,,SKC,0.00,VWS V14.01,2013-02-22 02:28:00,
2013-02-21 21:33:00,25.7,21.0,24.29,ESE,105,7.0,12.0,82,0.00,,SKC,0.00,VWS V14.01,2013-02-22 02:33:00,
2013-02-21 21:38:00,25.6,21.2,24.29,SE,130,4.0,10.0,83,0.00,,SKC,0.00,VWS V14.01,2013-02-22 02:38:00,
2013-02-21 21:43:00,25.6,21.2,24.30,SE,142,6.0,10.0,83,0.00,,SKC,0.00,VWS V14.01,2013-02-22 02:43:00,
2013-02-21 21:48:00,25.4,21.2,24.29,ESE,123,15.0,15.0,84,0.00,,SKC,0.00,VWS V14.01,2013-02-22 02:48:00,
2013-02-21 21:53:00,25.3,21.1,24.27,ESE,118,9.0,9.0,84,0.00,,SKC,0.00,VWS V14.01,2013-02-22 02:53:00,
2013-02-21 21:58:00,25.3,21.1,24.29,ESE,117,3.0,10.0,84,0.00,,SKC,0.00,VWS V14.01,2013-02-22 02:58:00,
2013-02-21 22:03:00,25.3,21.1,24.27,ESE,104,6.0,6.0,84,0.00,,SKC,0.00,VWS V14.01,2013-02-22 03:03:00,
2013-02-21 22:08:00,25.4,21.2,24.30,ESE,118,4.0,5.0,84,0.00,,SKC,0.00,VWS V14.01,2013-02-22 03:08:00,
2013-02-21 22:13:00,25.4,21.2,24.28,NE,52,0.0,5.0,84,0.00,,SKC,0.00,VWS V14.01,2013-02-22 03:13:00,
2013-02-21 22:18:00,25.4,21.2,24.27,SE,140,7.0,7.0,84,0.00,,SKC,0.00,VWS V14.01,2013-02-22 03:18:00,
2013-02-21 22:23:00,25.5,21.4,24.28,ESE,115,17.0,17.0,84,0.00,,SKC,0.00,VWS V14.01,2013-02-22 03:23:00,
2013-02-21 22:28:00,25.5,21.4,24.25,ESE,113,2.0,14.0,84,0.00,,SKC,0.00,VWS V14.01,2013-02-22 03:28:00,
2013-02-21 22:33:00,25.5,21.4,24.25,SE,126,10.0,10.0,84,0.00,,SKC,0.00,VWS V14.01,2013-02-22 03:33:00,
2013-02-21 22:38:00,25.5,21.6,24.25,ESE,110,6.0,12.0,85,0.00,,SKC,0.00,VWS V14.01,2013-02-22 03:38:00,
2013-02-21 22:43:00,25.5,21.6,24.25,ESE,107,5.0,11.0,85,0.00,,SKC,0.00,VWS V14.01,2013-02-22 03:43:00,
2013-02-21 22:48:00,25.6,21.7,24.26,SSE,150,6.0,14.0,85,0.00,,SKC,0.00,VWS V14.01,2013-02-22 03:48:00,
2013-02-21 22:53:00,25.6,21.7,24.26,East,86,5.0,14.0,85,0.00,,SKC,0.00,VWS V14.01,2013-02-22 03:53:00,
2013-02-21 22:58:00,25.7,22.1,24.36,ESE,109,6.0,10.0,86,0.00,,SKC,0.00,VWS V14.01,2013-02-22 03:58:00,
2013-02-21 23:03:00,25.7,22.1,24.31,SE,130,9.0,15.0,86,0.00,,SKC,0.00,VWS V14.01,2013-02-22 04:03:00,
2013-02-21 23:08:00,25.7,22.1,24.31,NNE,22,1.0,10.0,86,0.00,,SKC,0.00,VWS V14.01,2013-02-22 04:08:00,
2013-02-21 23:13:00,25.8,22.2,24.30,SE,126,11.0,11.0,86,0.00,,SKC,0.00,VWS V14.01,2013-02-22 04:13:00,
2013-02-21 23:18:00,25.9,22.3,24.31,SE,142,5.0,11.0,86,0.00,,SKC,0.00,VWS V14.01,2013-02-22 04:18:00,
2013-02-21 23:23:00,26.0,22.4,24.31,NE,55,6.0,7.0,86,0.00,,SKC,0.00,VWS V14.01,2013-02-22 04:23:00,
2013-02-21 23:28:00,26.1,22.5,24.31,ESE,108,1.0,12.0,86,0.00,,SKC,0.00,VWS V14.01,2013-02-22 04:28:00,
2013-02-21 23:33:00,26.2,22.6,24.28,East,95,6.0,11.0,86,0.00,,SKC,0.00,VWS V14.01,2013-02-22 04:33:00,
2013-02-21 23:38:00,26.2,22.3,24.26,SE,145,11.0,13.0,85,0.00,,SKC,0.00,VWS V14.01,2013-02-22 04:38:00,
2013-02-21 23:43:00,26.2,22.3,24.26,SE,134,11.0,15.0,85,0.00,,SKC,0.00,VWS V14.01,2013-02-22 04:43:00,
2013-02-21 23:48:00,26.3,22.4,24.26,ESE,109,10.0,11.0,85,0.00,,SKC,0.00,VWS V14.01,2013-02-22 04:48:00,
2013-02-21 23:53:00,26.3,22.4,24.26,ESE,106,10.0,10.0,85,0.00,,SKC,0.00,VWS V14.01,2013-02-22 04:53:00,
2013-02-21 23:58:00,26.3,22.7,24.26,SSE,155,3.0,11.0,86,0.00,,SKC,0.00,VWS V14.01,2013-02-22 04:58:00,